Simultaneous Nadir Overpasses (SNOs) Predictions

Prediction of SNOs between AQUA and GOES-15 Satellite Orbit:

Table of predicted SNOs for the next 14.0 days since TLE Epoch: 7/8/2016
Index Date Time (AQUA) AQUA Lat,Lon GOES-15 Lat,Lon Distance(km) Time Diff (sec)
1 07/08/2016 22:40:57 -0.06,-136.39 0.14,-135.49 102.43 80
2 07/10/2016 22:28:45 0.57,-133.43 0.14,-135.47 231.74 80
3 07/11/2016 10:49:59 0.52,-138.59 -0.16,-135.47 354.73 80
4 07/13/2016 10:37:47 -0.11,-135.63 -0.15,-135.45 21.19 80
5 07/15/2016 10:25:35 -0.75,-132.68 -0.16,-135.41 311.62 80
6 07/15/2016 22:46:59 -0.37,-137.86 0.18,-135.40 280.98 80
7 07/17/2016 22:34:47 0.27,-134.91 0.18,-135.36 50.96 80
8 07/19/2016 22:22:34 0.87,-131.94 0.18,-135.31 382.30 80
9 07/20/2016 10:43:50 0.17,-137.11 -0.20,-135.30 205.04 80
10 07/22/2016 10:31:37 -0.42,-134.14 -0.20,-135.25 125.55 80




NCC Satellite Simultaneous Nadir Overpasses (SNOs) Prediction Service
